Regional Weather Roundup
Issued by NWS

Home | Current Version | Previous Version | Text Only | Print | Product List | Glossary Off
Versions: 1 2 3 4 5 6 7 8 9 10 11 12 13 14 15 16 17 18 19 20 21 22 23 24 25 26 27 28 29 30 31 32 33 34 35 36 37 38 39 40 41 42 43 44 45 46 47 48 49 50

000
ASUS45 KSLC 291210
RWRUT

UTAH REGIONAL WEATHER ROUNDUP
NATIONAL WEATHER SERVICE SALT LAKE CITY UT
600 AM MDT FRI AUG 29 2014

UTZ001>011-023>025-291300-

NORTHERN UTAH

CITY           SKY/WX    TMP DP  RH WIND       PRES   REMARKS
HILL AFB       CLEAR     59  43  56 E17       30.11S
LOGAN          CLEAR     53  51  93 SW5       30.10S
OGDEN          CLEAR     60  43  53 S8        30.09R
PROVO AIRPORT  CLEAR     54  45  71 S6        30.13S
SALT LAKE CITY CLEAR     62  47  57 SE9       30.08R
VERNAL         CLEAR     53  46  77 W5        30.17R
WENDOVER       CLEAR     63  37  39 E5        30.06S
HEBER CITY     CLEAR     43  41  93 CALM      30.21S
WEST JORDAN    CLEAR     59  48  67 S3        30.10S

$$

UTZ012>022-026-027-291300-

SOUTHERN UTAH

CITY           SKY/WX    TMP DP  RH WIND       PRES   REMARKS
BRYCE CANYON   PTCLDY    40  36  86 W7        30.33R
CEDAR CITY     CLEAR     53  36  52 NE7       30.17S
MILFORD        CLEAR     52  41  66 SW9       30.14R
MOAB/CYNLANDS  CLEAR     62  50  64 CALM      30.11R
PRICE          CLEAR     55  41  59 NE6       30.19S
ST GEORGE      SUNNY     68  43  40 S7        30.02R

$$

REGIONAL REPORTS     COLORADO/ARIZONA

CITY           SKY/WX    TMP DP  RH WIND       PRES   REMARKS
CRAIG, CO        N/A     47  44  90 CALM      30.23S
GRAND JUNCTION MOCLDY    59  50  72 SE13      30.16R
RIFLE          PTCLDY    50  47  89 SE6       30.23R
MONTROSE       PTCLDY    51  44  77 SE8       30.24R
CORTEZ         CLEAR     44  41  89 CALM      30.21R
PAGE, AZ       CLEAR     67  42  40 E5        30.09S
GRAND CANYON     N/A    N/A N/A N/A MISG        N/A
KINGMAN        CLEAR     70  34  26 SE10      30.01R
FLAGSTAFF      CLEAR     43  39  86 CALM      30.28S

$$

REGIONAL REPORTS    NEVADA/IDAHO/WYOMING

CITY           SKY/WX    TMP DP  RH WIND       PRES   REMARKS
LAS VEGAS, NV  CLEAR     80  35  19 CALM      29.86S
ELY            PTCLDY    49  39  68 S12       30.20F
ELKO           CLEAR     52  35  52 NE6       30.12R
POCATELLO, ID  CLEAR     61  45  55 E6        30.08S
BURLEY         CLEAR     58  45  62 S6        30.03S
EVANSTON, WY   CLEAR     48  38  68 S8        30.26S
ROCK SPRINGS   CLEAR     53  42  66 SW7       30.23S

$$


USA.gov is the U.S. government's official web portal to all federal, state and local government web resources and services.